| time (UTC) | temp F | wind direction | speed knots | gust knots | rain 1hr in | rain 24hr in | rain mn in | humidity % | barometer mb |
| 20260508231305 | 61 | 196 | 2.6 | 7.8 | 0.00 | 0.00 | 0.00 | 62 | 1006.2 |
| 20260508230305 | 61 | 199 | 1.7 | 5.2 | 0.00 | 0.00 | 0.00 | 61 | 1006.2 |
| 20260508225805 | 62 | 182 | 1.7 | 4.3 | 0.00 | 0.00 | 0.00 | 60 | 1006.3 |
| 20260508224805 | 62 | 247 | 2.6 | 5.2 | 0.00 | 0.00 | 0.00 | 58 | 1006.3 |
| 20260508224305 | 62 | 220 | 1.7 | 5.2 | 0.00 | 0.00 | 0.00 | 56 | 1006.3 |
| 20260508223805 | 62 | 234 | 1.7 | 6.1 | 0.00 | 0.00 | 0.00 | 53 | 1006.3 |
| 20260508223305 | 63 | 189 | 1.7 | 6.1 | 0.00 | 0.00 | 0.00 | 51 | 1006.3 |
| 20260508222805 | 63 | 225 | 1.7 | 4.3 | 0.00 | 0.00 | 0.00 | 47 | 1006.3 |
| 20260508221805 | 64 | 205 | 1.7 | 5.2 | 0.00 | 0.00 | 0.00 | 47 | 1006.4 |
| 20260508220805 | 64 | 245 | 1.7 | 5.2 | 0.00 | 0.00 | 0.00 | 46 | 1006.5 |
| 20260508220305 | 64 | 228 | 2.6 | 7.0 | 0.00 | 0.00 | 0.00 | 46 | 1006.5 |
| 20260508215805 | 64 | 256 | 1.7 | 7.0 | 0.00 | 0.00 | 0.00 | 48 | 1006.6 |
| 20260508214806 | 63 | 185 | 0.9 | 4.3 | 0.00 | 0.00 | 0.00 | 51 | 1006.6 |
| 20260508214305 | 63 | 203 | 2.6 | 6.1 | 0.00 | 0.00 | 0.00 | 49 | 1006.6 |
| 20260508213806 | 63 | 200 | 2.6 | 7.0 | 0.00 | 0.00 | 0.00 | 49 | 1006.6 |
| 20260508212806 | 62 | 216 | 1.7 | 5.2 | 0.00 | 0.00 | 0.00 | 48 | 1006.7 |
| 20260508212306 | 63 | 223 | 2.6 | 6.1 | 0.00 | 0.00 | 0.00 | 47 | 1006.8 |
| 20260508211805 | 63 | 265 | 1.7 | 2.6 | 0.00 | 0.00 | 0.00 | 49 | 1006.9 |
| 20260508211305 | 64 | 205 | 0.9 | 2.6 | 0.00 | 0.00 | 0.00 | 48 | 1006.9 |
| 20260508210805 | 64 | 217 | 2.6 | 6.1 | 0.00 | 0.00 | 0.00 | 47 | 1006.9 |
| 20260508210305 | 65 | 252 | 1.7 | 7.0 | 0.00 | 0.00 | 0.00 | 48 | 1006.9 |
| 20260508205805 | 65 | 205 | 2.6 | 6.1 | 0.00 | 0.00 | 0.00 | 46 | 1006.9 |
| 20260508205306 | 65 | 204 | 3.5 | 7.0 | 0.00 | 0.00 | 0.00 | 46 | 1006.8 |
| 20260508204806 | 64 | 59 | 0.9 | 2.6 | 0.00 | 0.00 | 0.00 | 46 | 1006.9 |
| 20260508203805 | 63 | 213 | 0.9 | 2.6 | 0.00 | 0.00 | 0.00 | 47 | 1007.0 |
| 20260508203305 | 63 | 185 | 1.7 | 2.6 | 0.00 | 0.00 | 0.00 | 47 | 1007.1 |
| 20260508202805 | 63 | 257 | 0.9 | 2.6 | 0.00 | 0.00 | 0.00 | 45 | 1007.1 |
| 20260508202307 | 63 | 242 | 1.7 | 5.2 | 0.00 | 0.00 | 0.00 | 44 | 1007.2 |
| 20260508201806 | 64 | 254 | 3.5 | 7.0 | 0.00 | 0.00 | 0.00 | 41 | 1007.3 |
| 20260508201306 | 64 | 267 | 2.6 | 4.3 | 0.00 | 0.00 | 0.00 | 43 | 1007.3 |
| 20260508200805 | 64 | 271 | 1.7 | 6.1 | 0.00 | 0.00 | 0.00 | 51 | 1007.4 |
| 20260508200305 | 64 | 189 | 1.7 | 6.1 | 0.00 | 0.00 | 0.00 | 50 | 1007.5 |
| 20260508195805 | 64 | 204 | 1.7 | 5.2 | 0.00 | 0.00 | 0.00 | 49 | 1007.6 |
| 20260508195306 | 64 | 248 | 2.6 | 6.1 | 0.00 | 0.00 | 0.00 | 48 | 1007.7 |
| 20260508194805 | 64 | 247 | 2.6 | 6.1 | 0.00 | 0.00 | 0.00 | 51 | 1007.9 |
| 20260508194305 | 63 | 209 | 1.7 | 6.1 | 0.00 | 0.00 | 0.00 | 53 | 1007.9 |
| 20260508193805 | 63 | 172 | 3.5 | 7.0 | 0.00 | 0.00 | 0.00 | 51 | 1007.9 |
| 20260508193305 | 62 | 173 | 2.6 | 10.4 | 0.00 | 0.00 | 0.00 | 53 | 1008.0 |
| 20260508192805 | 62 | 185 | 1.7 | 6.1 | 0.00 | 0.00 | 0.00 | 53 | 1008.1 |
| 20260508192306 | 62 | 201 | 1.7 | 5.2 | 0.00 | 0.00 | 0.00 | 52 | 1008.2 |
| 20260508191806 | 62 | 192 | 2.6 | 7.8 | 0.00 | 0.00 | 0.00 | 53 | 1008.2 |
| 20260508190805 | 61 | 208 | 3.5 | 10.4 | 0.00 | 0.00 | 0.00 | 53 | 1008.5 |
| 20260508190305 | 60 | 183 | 0.9 | 6.1 | 0.00 | 0.00 | 0.00 | 53 | 1008.6 |
| 20260508185805 | 60 | 195 | 1.7 | 6.1 | 0.00 | 0.00 | 0.00 | 54 | 1008.7 |
| 20260508185306 | 60 | 188 | 2.6 | 5.2 | 0.00 | 0.00 | 0.00 | 51 | 1008.7 |
| 20260508184305 | 60 | 240 | 0.9 | 2.6 | 0.00 | 0.00 | 0.00 | 54 | 1008.8 |
| 20260508183805 | 60 | 185 | 0.9 | 2.6 | 0.00 | 0.00 | 0.00 | 52 | 1008.8 |
| 20260508182807 | 60 | 171 | 1.7 | 4.3 | 0.00 | 0.00 | 0.00 | 49 | 1009.0 |
| 20260508182306 | 61 | 189 | 1.7 | 4.3 | 0.00 | 0.00 | 0.00 | 47 | 1009.1 |
| 20260508181805 | 61 | 252 | 1.7 | 6.1 | 0.00 | 0.00 | 0.00 | 47 | 1009.1 |
| 20260508181306 | 62 | 202 | 1.7 | 5.2 | 0.00 | 0.00 | 0.00 | 45 | 1009.1 |
| 20260508180806 | 62 | 195 | 4.3 | 8.7 | 0.00 | 0.00 | 0.00 | 45 | 1009.1 |
| 20260508175806 | 62 | 253 | 2.6 | 7.0 | 0.00 | 0.00 | 0.00 | 46 | 1009.1 |
| 20260508175306 | 62 | 194 | 2.6 | 8.7 | 0.00 | 0.00 | 0.00 | 48 | 1009.2 |
| 20260508174805 | 61 | 256 | 2.6 | 6.1 | 0.00 | 0.00 | 0.00 | 50 | 1009.3 |
| 20260508174306 | 60 | 202 | 2.6 | 5.2 | 0.00 | 0.00 | 0.00 | 50 | 1009.5 |
| 20260508173805 | 59 | 193 | 0.9 | 2.6 | 0.00 | 0.00 | 0.00 | 54 | 1009.5 |
| 20260508172805 | 60 | 185 | 1.7 | 6.1 | 0.00 | 0.00 | 0.00 | 52 | 1009.9 |
| 20260508172307 | 60 | 208 | 1.7 | 5.2 | 0.00 | 0.00 | 0.00 | 55 | 1010.0 |
| 20260508171806 | 60 | 232 | 2.6 | 8.7 | 0.00 | 0.00 | 0.00 | 55 | 1010.0 |
| 20260508171305 | 59 | 212 | 4.3 | 10.4 | 0.00 | 0.00 | 0.00 | 56 | 1010.0 |
| 20260508170805 | 59 | 180 | 1.7 | 4.3 | 0.00 | 0.00 | 0.00 | 56 | 1010.1 |
| 20260508170305 | 59 | 105 | 1.7 | 6.1 | 0.00 | 0.00 | 0.00 | 56 | 1010.1 |
| 20260508165306 | 60 | 192 | 2.6 | 7.8 | 0.00 | 0.00 | 0.00 | 58 | 1010.4 |
| 20260508164805 | 60 | 193 | 2.6 | 7.0 | 0.00 | 0.00 | 0.00 | 57 | 1010.5 |
| 20260508163805 | 59 | 196 | 3.5 | 7.0 | 0.00 | 0.00 | 0.00 | 57 | 1010.6 |
| 20260508163305 | 59 | 113 | 1.7 | 6.1 | 0.00 | 0.00 | 0.00 | 57 | 1010.6 |
| 20260508162805 | 59 | 187 | 4.3 | 7.8 | 0.00 | 0.00 | 0.00 | 55 | 1010.8 |
| 20260508162307 | 59 | 194 | 1.7 | 10.4 | 0.00 | 0.00 | 0.00 | 56 | 1010.7 |
| 20260508161805 | 59 | 187 | 3.5 | 10.4 | 0.00 | 0.00 | 0.00 | 55 | 1010.8 |
| 20260508161305 | 59 | 169 | 1.7 | 4.3 | 0.00 | 0.00 | 0.00 | 52 | 1010.9 |
| 20260508160805 | 58 | 89 | 0.9 | 2.6 | 0.00 | 0.00 | 0.00 | 52 | 1010.9 |
| 20260508160305 | 58 | 258 | 1.7 | 5.2 | 0.00 | 0.00 | 0.00 | 50 | 1011.0 |
| 20260508155306 | 59 | 243 | 1.7 | 2.6 | 0.00 | 0.00 | 0.00 | 54 | 1011.0 |
| 20260508154806 | 59 | 246 | 1.7 | 5.2 | 0.00 | 0.00 | 0.00 | 54 | 1011.1 |
| 20260508154305 | 59 | 212 | 0.9 | 2.6 | 0.00 | 0.00 | 0.00 | 56 | 1011.1 |
| 20260508153805 | 59 | 311 | 1.7 | 2.6 | 0.00 | 0.00 | 0.00 | 54 | 1011.2 |
| 20260508153305 | 59 | 291 | 1.7 | 5.2 | 0.00 | 0.00 | 0.00 | 52 | 1011.2 |
| 20260508152805 | 58 | 45 | 0.9 | 2.6 | 0.00 | 0.00 | 0.00 | 54 | 1011.2 |
| 20260508152306 | 58 | 265 | 0.9 | 2.6 | 0.00 | 0.00 | 0.00 | 52 | 1011.1 |
| 20260508151807 | 59 | 243 | 1.7 | 4.3 | 0.00 | 0.00 | 0.00 | 49 | 1011.2 |
| 20260508151305 | 59 | 311 | 1.7 | 2.6 | 0.00 | 0.00 | 0.00 | 50 | 1011.2 |
| 20260508150805 | 59 | 329 | 1.7 | 2.6 | 0.00 | 0.00 | 0.00 | 57 | 1011.2 |
| 20260508145805 | 58 | 358 | 0.0 | 2.6 | 0.00 | 0.00 | 0.00 | 64 | 1011.4 |
| 20260508144806 | 57 | 111 | 0.9 | 2.6 | 0.00 | 0.00 | 0.00 | 60 | 1011.4 |
| 20260508144305 | 57 | 95 | 0.9 | 2.6 | 0.00 | 0.00 | 0.00 | 60 | 1011.4 |
| 20260508143805 | 57 | 19 | 1.7 | 2.6 | 0.00 | 0.00 | 0.00 | 64 | 1011.4 |
| 20260508143305 | 56 | 54 | 0.9 | 2.6 | 0.00 | 0.00 | 0.00 | 68 | 1011.5 |
| 20260508142806 | 55 | 78 | 0.9 | 2.6 | 0.00 | 0.00 | 0.00 | 64 | 1011.6 |
| 20260508142306 | 55 | 36 | 0.9 | 2.6 | 0.00 | 0.00 | 0.00 | 70 | 1011.6 |
| 20260508141805 | 55 | 112 | 0.9 | 1.7 | 0.00 | 0.00 | 0.00 | 69 | 1011.7 |
| 20260508141305 | 55 | 266 | 0.9 | 1.7 | 0.00 | 0.00 | 0.00 | 69 | 1011.7 |
| 20260508140805 | 55 | 266 | 0.9 | 2.6 | 0.00 | 0.00 | 0.00 | 71 | 1011.8 |
| 20260508135805 | 55 | 31 | 0.9 | 2.6 | 0.00 | 0.00 | 0.00 | 72 | 1011.7 |
| 20260508135306 | 54 | 28 | 1.7 | 4.3 | 0.00 | 0.00 | 0.00 | 74 | 1011.7 |
| 20260508134805 | 54 | 131 | 0.9 | 2.6 | 0.00 | 0.00 | 0.00 | 75 | 1011.8 |
| 20260508134305 | 53 | 38 | 0.9 | 2.6 | 0.00 | 0.00 | 0.00 | 80 | 1011.8 |
| 20260508132805 | 52 | 281 | 0.9 | 1.7 | 0.00 | 0.00 | 0.00 | 80 | 1011.9 |
| 20260508132306 | 51 | 281 | 0.9 | 1.7 | 0.00 | 0.00 | 0.00 | 81 | 1011.9 |
| 20260508131806 | 51 | 281 | 0.0 | 1.7 | 0.00 | 0.00 | 0.00 | 81 | 1011.9 |
| 20260508131305 | 51 | 253 | 0.9 | 1.7 | 0.00 | 0.00 | 0.00 | 82 | 1011.9 |
| 20260508130806 | 50 | 288 | 0.0 | 2.6 | 0.00 | 0.00 | 0.00 | 83 | 1011.9 |
| 20260508130305 | 50 | 243 | 1.7 | 4.3 | 0.00 | 0.00 | 0.00 | 84 | 1011.9 |
| 20260508125805 | 50 | 342 | 0.9 | 1.7 | 0.00 | 0.00 | 0.00 | 85 | 1011.9 |
| 20260508125306 | 49 | 341 | 0.0 | 0.9 | 0.00 | 0.00 | 0.00 | 86 | 1011.9 |
| 20260508124805 | 49 | 341 | 0.9 | 1.7 | 0.00 | 0.00 | 0.00 | 87 | 1011.9 |
| 20260508124305 | 48 | 0 | 0.9 | 1.7 | 0.00 | 0.00 | 0.00 | 88 | 1011.9 |
| 20260508123805 | 48 | 33 | 0.0 | 1.7 | 0.00 | 0.00 | 0.00 | 89 | 1011.9 |
| 20260508123305 | 47 | 269 | 0.0 | 0.0 | 0.00 | 0.00 | 0.00 | 90 | 1011.8 |
| 20260508122806 | 47 | 320 | 0.0 | 0.9 | 0.00 | 0.00 | 0.00 | 91 | 1011.7 |
| 20260508122307 | 46 | 284 | 0.0 | 0.0 | 0.00 | 0.00 | 0.00 | 91 | 1011.8 |
| 20260508121805 | 46 | 284 | 0.0 | 0.0 | 0.00 | 0.00 | 0.00 | 92 | 1011.7 |
| 20260508120805 | 44 | 246 | 0.0 | 0.0 | 0.00 | 0.00 | 0.00 | 92 | 1011.6 |
| 20260508115805 | 43 | 246 | 0.0 | 0.0 | 0.00 | 0.00 | 0.00 | 92 | 1011.7 |
| 20260508115306 | 42 | 246 | 0.0 | 0.0 | 0.00 | 0.00 | 0.00 | 92 | 1011.6 |
| 20260508114805 | 41 | 246 | 0.0 | 0.0 | 0.00 | 0.00 | 0.00 | 92 | 1011.6 |
| 20260508113306 | 39 | 246 | 0.0 | 0.0 | 0.00 | 0.00 | 0.00 | 92 | 1011.3 |
| 20260508112805 | 39 | 246 | 0.0 | 0.0 | 0.00 | 0.00 | 0.00 | 92 | 1011.4 |
| 20260508112307 | 39 | 246 | 0.0 | 0.0 | 0.00 | 0.00 | 0.00 | 92 | 1011.4 |
| 20260508111805 | 39 | 246 | 0.0 | 0.0 | 0.00 | 0.00 | 0.00 | 92 | 1011.3 |
| 20260508111305 | 39 | 246 | 0.0 | 0.0 | 0.00 | 0.00 | 0.00 | 92 | 1011.2 |
| 20260508110305 | 39 | 246 | 0.0 | 0.0 | 0.00 | 0.00 | 0.00 | 92 | 1011.0 |
| 20260508105805 | 39 | 246 | 0.0 | 0.0 | 0.00 | 0.00 | 0.00 | 92 | 1011.0 |
| 20260508105306 | 39 | 246 | 0.0 | 0.0 | 0.00 | 0.00 | 0.00 | 92 | 1011.0 |
| 20260508104805 | 39 | 246 | 0.0 | 0.0 | 0.00 | 0.00 | 0.00 | 92 | 1011.0 |
| 20260508104305 | 39 | 246 | 0.0 | 0.0 | 0.00 | 0.00 | 0.00 | 92 | 1011.0 |
| 20260508103805 | 39 | 246 | 0.0 | 0.0 | 0.00 | 0.00 | 0.00 | 92 | 1010.9 |
| 20260508103305 | 39 | 246 | 0.0 | 0.0 | 0.00 | 0.00 | 0.00 | 92 | 1010.9 |
| 20260508102805 | 39 | 246 | 0.0 | 0.0 | 0.00 | 0.00 | 0.00 | 92 | 1010.8 |
| 20260508102306 | 39 | 246 | 0.0 | 0.0 | 0.00 | 0.00 | 0.00 | 92 | 1010.8 |
| 20260508101805 | 39 | 246 | 0.0 | 0.0 | 0.00 | 0.00 | 0.00 | 92 | 1010.8 |
| 20260508101305 | 39 | 246 | 0.0 | 0.0 | 0.00 | 0.00 | 0.00 | 92 | 1010.8 |
| 20260508100305 | 39 | 246 | 0.0 | 0.0 | 0.00 | 0.00 | 0.00 | 92 | 1010.8 |
| 20260508095805 | 39 | 246 | 0.0 | 0.0 | 0.00 | 0.00 | 0.00 | 91 | 1010.9 |
| 20260508095306 | 39 | 246 | 0.0 | 0.0 | 0.00 | 0.00 | 0.00 | 91 | 1010.9 |
| 20260508094806 | 39 | 246 | 0.0 | 0.0 | 0.00 | 0.00 | 0.00 | 91 | 1010.9 |
| 20260508094305 | 39 | 246 | 0.0 | 0.0 | 0.00 | 0.00 | 0.00 | 91 | 1010.9 |
| 20260508093805 | 39 | 246 | 0.0 | 0.0 | 0.00 | 0.00 | 0.00 | 91 | 1010.9 |
| 20260508093305 | 39 | 246 | 0.0 | 0.0 | 0.00 | 0.00 | 0.00 | 91 | 1010.8 |
| 20260508092312 | 40 | 246 | 0.0 | 0.0 | 0.00 | 0.00 | 0.00 | 91 | 1010.8 |
| 20260508090806 | 40 | 246 | 0.0 | 0.0 | 0.00 | 0.00 | 0.00 | 90 | 1010.8 |
| 20260508085307 | 40 | 246 | 0.0 | 0.0 | 0.00 | 0.00 | 0.00 | 90 | 1010.9 |
| 20260508084805 | 41 | 246 | 0.0 | 0.0 | 0.00 | 0.00 | 0.00 | 90 | 1010.9 |
| 20260508084305 | 41 | 246 | 0.0 | 0.0 | 0.00 | 0.00 | 0.00 | 90 | 1010.9 |
| 20260508083805 | 41 | 246 | 0.0 | 0.0 | 0.00 | 0.00 | 0.00 | 90 | 1010.9 |
| 20260508082805 | 41 | 246 | 0.0 | 0.0 | 0.00 | 0.00 | 0.00 | 90 | 1011.0 |
| 20260508082306 | 42 | 246 | 0.0 | 0.0 | 0.00 | 0.00 | 0.00 | 90 | 1011.0 |
| 20260508081805 | 42 | 246 | 0.0 | 0.0 | 0.00 | 0.00 | 0.00 | 90 | 1011.0 |
| 20260508081305 | 42 | 246 | 0.0 | 0.0 | 0.00 | 0.00 | 0.00 | 90 | 1010.9 |
| 20260508080305 | 42 | 246 | 0.0 | 0.0 | 0.00 | 0.00 | 0.00 | 91 | 1011.0 |
| 20260508075805 | 42 | 246 | 0.0 | 0.0 | 0.00 | 0.00 | 0.00 | 91 | 1011.0 |
| 20260508075308 | 42 | 246 | 0.0 | 0.0 | 0.00 | 0.00 | 0.00 | 91 | 1011.2 |
| 20260508074804 | 41 | 246 | 0.0 | 0.0 | 0.00 | 0.00 | 0.00 | 91 | 1011.2 |
| 20260508073805 | 41 | 246 | 0.0 | 0.0 | 0.00 | 0.00 | 0.00 | 91 | 1011.1 |
| 20260508072805 | 41 | 246 | 0.0 | 0.0 | 0.00 | 0.00 | 0.00 | 91 | 1011.3 |
| 20260508072307 | 41 | 246 | 0.0 | 0.0 | 0.00 | 0.00 | 0.00 | 91 | 1011.3 |
| 20260508071805 | 40 | 246 | 0.0 | 0.0 | 0.00 | 0.00 | 0.00 | 90 | 1011.3 |
| 20260508071305 | 40 | 246 | 0.0 | 0.0 | 0.00 | 0.00 | 0.00 | 90 | 1011.4 |
| 20260508070805 | 40 | 246 | 0.0 | 0.0 | 0.00 | 0.00 | 0.00 | 89 | 1011.3 |
| 20260508070306 | 40 | 246 | 0.0 | 0.0 | 0.00 | 0.00 | 0.00 | 89 | 1011.3 |
| 20260508065307 | 40 | 246 | 0.0 | 0.0 | 0.00 | 0.00 | 0.00 | 88 | 1011.3 |
| 20260508064806 | 40 | 246 | 0.0 | 0.0 | 0.00 | 0.00 | 0.00 | 88 | 1011.4 |
| 20260508064305 | 41 | 246 | 0.0 | 0.0 | 0.00 | 0.00 | 0.00 | 88 | 1011.4 |
| 20260508063806 | 41 | 246 | 0.0 | 0.0 | 0.00 | 0.00 | 0.00 | 88 | 1011.4 |
| 20260508063305 | 41 | 246 | 0.0 | 0.0 | 0.00 | 0.00 | 0.00 | 88 | 1011.5 |
| 20260508062805 | 41 | 246 | 0.0 | 0.0 | 0.00 | 0.00 | 0.00 | 87 | 1011.5 |
| 20260508062306 | 41 | 246 | 0.0 | 0.0 | 0.00 | 0.00 | 0.00 | 87 | 1011.4 |
| 20260508061805 | 41 | 246 | 0.0 | 0.0 | 0.00 | 0.00 | 0.00 | 87 | 1011.4 |
| 20260508060806 | 41 | 246 | 0.0 | 0.0 | 0.00 | 0.00 | 0.00 | 87 | 1011.3 |
| 20260508060305 | 41 | 246 | 0.0 | 0.0 | 0.00 | 0.00 | 0.00 | 87 | 1011.4 |
| 20260508055306 | 42 | 246 | 0.0 | 0.0 | 0.00 | 0.00 | 0.00 | 87 | 1011.4 |
| 20260508054805 | 42 | 246 | 0.0 | 0.0 | 0.00 | 0.00 | 0.00 | 87 | 1011.4 |
| 20260508054305 | 42 | 246 | 0.0 | 0.0 | 0.00 | 0.00 | 0.00 | 86 | 1011.5 |
| 20260508053805 | 42 | 246 | 0.0 | 0.0 | 0.00 | 0.00 | 0.00 | 86 | 1011.5 |
| 20260508053305 | 42 | 246 | 0.0 | 0.0 | 0.00 | 0.00 | 0.00 | 86 | 1011.6 |
| 20260508052805 | 42 | 246 | 0.0 | 0.0 | 0.00 | 0.00 | 0.00 | 85 | 1011.6 |
| 20260508051805 | 42 | 246 | 0.0 | 0.0 | 0.00 | 0.00 | 0.00 | 84 | 1011.6 |
| 20260508051305 | 42 | 246 | 0.0 | 0.0 | 0.00 | 0.00 | 0.00 | 83 | 1011.6 |
| 20260508050805 | 42 | 246 | 0.0 | 0.0 | 0.00 | 0.00 | 0.00 | 83 | 1011.6 |
| 20260508050305 | 43 | 246 | 0.0 | 0.0 | 0.00 | 0.00 | 0.00 | 82 | 1011.7 |
| 20260508045307 | 43 | 246 | 0.0 | 0.0 | 0.00 | 0.00 | 0.00 | 82 | 1011.6 |
| 20260508044806 | 43 | 246 | 0.0 | 0.0 | 0.00 | 0.00 | 0.00 | 82 | 1011.6 |
| 20260508044305 | 43 | 246 | 0.0 | 0.0 | 0.00 | 0.00 | 0.00 | 82 | 1011.5 |
| 20260508043805 | 44 | 246 | 0.0 | 0.0 | 0.00 | 0.00 | 0.00 | 81 | 1011.5 |
| 20260508043305 | 44 | 246 | 0.0 | 0.0 | 0.00 | 0.00 | 0.00 | 81 | 1011.5 |
| 20260508042805 | 44 | 246 | 0.0 | 0.0 | 0.00 | 0.00 | 0.00 | 81 | 1011.5 |
| 20260508042307 | 44 | 246 | 0.0 | 0.0 | 0.00 | 0.00 | 0.00 | 81 | 1011.5 |
| 20260508041805 | 45 | 246 | 0.0 | 0.9 | 0.00 | 0.00 | 0.00 | 80 | 1011.4 |
| 20260508041306 | 45 | 246 | 0.0 | 0.0 | 0.00 | 0.00 | 0.00 | 80 | 1011.4 |
| 20260508040827 | 45 | 246 | 0.0 | 0.0 | 0.00 | 0.00 | 0.00 | 80 | 1011.5 |
| 20260508035805 | 46 | 246 | 0.0 | 0.9 | 0.00 | 0.00 | 0.00 | 80 | 1011.5 |
| 20260508035306 | 46 | 246 | 0.0 | 0.0 | 0.00 | 0.00 | 0.00 | 80 | 1011.5 |
| 20260508034805 | 46 | 246 | 0.0 | 0.0 | 0.00 | 0.00 | 0.00 | 80 | 1011.5 |
| 20260508034305 | 46 | 246 | 0.0 | 0.0 | 0.00 | 0.00 | 0.00 | 80 | 1011.5 |
| 20260508033806 | 46 | 246 | 0.0 | 0.0 | 0.00 | 0.00 | 0.00 | 79 | 1011.6 |
| 20260508033305 | 46 | 246 | 0.0 | 0.0 | 0.00 | 0.00 | 0.00 | 79 | 1011.6 |
| 20260508032805 | 46 | 246 | 0.0 | 0.9 | 0.00 | 0.00 | 0.00 | 78 | 1011.6 |
| 20260508032306 | 46 | 246 | 0.0 | 0.0 | 0.00 | 0.00 | 0.00 | 78 | 1011.7 |
| 20260508031805 | 47 | 246 | 0.0 | 0.0 | 0.00 | 0.00 | 0.00 | 76 | 1011.8 |
| 20260508031305 | 47 | 246 | 0.0 | 0.0 | 0.00 | 0.00 | 0.00 | 75 | 1011.8 |
| 20260508030805 | 47 | 246 | 0.0 | 0.0 | 0.00 | 0.00 | 0.00 | 75 | 1011.8 |
| 20260508030305 | 48 | 246 | 0.0 | 0.0 | 0.00 | 0.00 | 0.00 | 75 | 1011.8 |
| 20260508025805 | 48 | 246 | 0.0 | 0.0 | 0.00 | 0.00 | 0.00 | 74 | 1011.9 |
| 20260508025306 | 48 | 246 | 0.0 | 0.0 | 0.00 | 0.00 | 0.00 | 75 | 1012.0 |
| 20260508024805 | 48 | 246 | 0.0 | 0.0 | 0.00 | 0.00 | 0.00 | 74 | 1012.0 |
| 20260508024305 | 48 | 246 | 0.0 | 0.0 | 0.00 | 0.00 | 0.00 | 73 | 1012.0 |
| 20260508023805 | 48 | 246 | 0.0 | 0.0 | 0.00 | 0.00 | 0.00 | 71 | 1012.0 |
| 20260508023305 | 49 | 246 | 0.0 | 2.6 | 0.00 | 0.00 | 0.00 | 71 | 1011.9 |
| 20260508022307 | 49 | 244 | 0.0 | 2.6 | 0.00 | 0.00 | 0.00 | 71 | 1011.8 |
| 20260508021805 | 49 | 235 | 0.9 | 2.6 | 0.00 | 0.00 | 0.00 | 70 | 1011.8 |
| 20260508021305 | 49 | 296 | 2.6 | 6.1 | 0.00 | 0.00 | 0.00 | 69 | 1011.8 |
| 20260508020804 | 49 | 282 | 0.9 | 2.6 | 0.00 | 0.00 | 0.00 | 68 | 1011.9 |
| 20260508020304 | 50 | 270 | 0.9 | 2.6 | 0.00 | 0.00 | 0.00 | 67 | 1011.9 |
| 20260508015805 | 50 | 240 | 0.0 | 2.6 | 0.00 | 0.00 | 0.00 | 66 | 1011.8 |
| 20260508015306 | 50 | 269 | 0.9 | 2.6 | 0.00 | 0.00 | 0.00 | 64 | 1011.9 |
| 20260508014808 | 50 | 247 | 1.7 | 2.6 | 0.00 | 0.00 | 0.00 | 64 | 1011.9 |
| 20260508014306 | 50 | 277 | 1.7 | 6.1 | 0.00 | 0.00 | 0.00 | 62 | 1011.8 |
| 20260508013809 | 50 | 265 | 0.9 | 2.6 | 0.00 | 0.00 | 0.00 | 62 | 1011.7 |
| 20260508013305 | 50 | 244 | 0.0 | 0.9 | 0.00 | 0.00 | 0.00 | 60 | 1011.5 |
| 20260508012805 | 50 | 244 | 0.9 | 2.6 | 0.00 | 0.00 | 0.00 | 59 | 1011.5 |
| 20260508012307 | 50 | 249 | 1.7 | 4.3 | 0.00 | 0.00 | 0.00 | 60 | 1011.4 |
| 20260508011806 | 50 | 300 | 1.7 | 2.6 | 0.00 | 0.00 | 0.00 | 61 | 1011.3 |
| 20260508011306 | 49 | 253 | 0.9 | 5.2 | 0.00 | 0.00 | 0.00 | 62 | 1011.3 |
| 20260508010305 | 50 | 249 | 0.0 | 0.0 | 0.00 | 0.00 | 0.00 | 64 | 1011.1 |
| 20260508005805 | 50 | 249 | 0.0 | 0.0 | 0.00 | 0.00 | 0.00 | 62 | 1011.1 |
| 20260508005306 | 50 | 249 | 0.0 | 0.0 | 0.00 | 0.00 | 0.00 | 63 | 1011.0 |
| 20260508004805 | 50 | 249 | 0.0 | 0.0 | 0.00 | 0.00 | 0.00 | 65 | 1011.0 |
| 20260508004305 | 51 | 249 | 0.0 | 0.0 | 0.00 | 0.00 | 0.00 | 61 | 1010.9 |
| 20260508003804 | 51 | 249 | 0.0 | 0.0 | 0.00 | 0.00 | 0.00 | 61 | 1010.9 |
| 20260508003305 | 51 | 249 | 0.0 | 0.0 | 0.00 | 0.00 | 0.00 | 57 | 1010.9 |
| 20260508002804 | 51 | 249 | 0.0 | 0.0 | 0.00 | 0.00 | 0.00 | 55 | 1010.8 |
| 20260508002307 | 52 | 249 | 0.0 | 0.0 | 0.00 | 0.00 | 0.00 | 53 | 1010.8 |
| 20260508001804 | 52 | 249 | 0.0 | 0.0 | 0.00 | 0.00 | 0.00 | 51 | 1010.8 |
| 20260508001304 | 52 | 249 | 0.9 | 1.7 | 0.00 | 0.00 | 0.00 | 49 | 1010.8 |
| 20260508000805 | 52 | 249 | 0.0 | 1.7 | 0.00 | 0.00 | 0.00 | 49 | 1010.7 |
| 20260508000305 | 53 | 248 | 0.0 | 2.6 | 0.00 | 0.00 | 0.00 | 51 | 1010.8 |
| 20260507235805 | 53 | 278 | 0.9 | 4.3 | 0.00 | 0.00 | 0.00 | 49 | 1010.9 |
| 20260507234805 | 53 | 270 | 1.7 | 2.6 | 0.00 | 0.00 | 0.00 | 47 | 1010.8 |
| 20260507234305 | 53 | 247 | 1.7 | 4.3 | 0.00 | 0.00 | 0.00 | 48 | 1010.8 |
| 20260507233304 | 54 | 295 | 0.9 | 2.6 | 0.00 | 0.00 | 0.00 | 49 | 1010.8 |
| 20260507232806 | 54 | 272 | 0.9 | 2.6 | 0.00 | 0.00 | 0.00 | 47 | 1010.8 |
| 20260507232306 | 54 | 271 | 1.7 | 4.3 | 0.00 | 0.00 | 0.00 | 47 | 1010.9 |
| 20260507231805 | 54 | 274 | 2.6 | 6.1 | 0.00 | 0.00 | 0.00 | 47 | 1010.9 |